CW3540 Copenhagen DK current weather conditions

sailwx.info

Wind from 200 at 5 knots gusting 13

Air temperature 4.4° C
Dewpoint 3.0° C

Last reported at 2019-Dec-12 17:20 UTC.
Time now 2019-Dec-12 18:25 UTC

Location: N 55°44' E 012°24'.
View on Google Maps.

See reports from other nearby stations

  
Tides and Currents Weather Stations Pressure Air Temp Water Temp Dewpoint Dewpoint Depression Visibility Wind Speed Wind Dir Waves Ship Positions
date/time (UTC)wind fromknots sea level pressurealtimeterstation pressurevisibilityair tempwater tempwave heightnotes
2019-Dec-12 17:20 200 5 gusting 13 4.4
2019-Dec-12 17:10 157 8 gusting 11 4.4
2019-Dec-12 16:40 168 10 gusting 13 4.4
2019-Dec-12 16:30 173 8 gusting 13 4.4
2019-Dec-12 16:20 184 0 gusting 7 4.4
2019-Dec-12 16:10 186 9 gusting 11 4.4
2019-Dec-12 15:30 168 5 gusting 11 4.4
2019-Dec-12 15:20 179 2 gusting 11 4.4
2019-Dec-12 15:10 181 4.4
2019-Dec-12 15:00 181 2 gusting 13 4.4
2019-Dec-12 14:50 184 7 gusting 11 4.4
2019-Dec-12 14:40 195 14 gusting 13 4.4
2019-Dec-12 14:30 184 8 gusting 11 4.4
2019-Dec-12 14:00 170 13 gusting 13 4.4
2019-Dec-12 13:50 193 4 gusting 11 4.4
2019-Dec-12 13:30 196 3 gusting 17 4.4
2019-Dec-12 13:20 194 17 gusting 17 4.4
2019-Dec-12 13:10 204 12 gusting 11 5.0
2019-Dec-12 12:50 194 13 gusting 13 5.0
2019-Dec-12 12:40 210 4 gusting 13 5.0
2019-Dec-12 12:30 211 11 gusting 13 5.0
2019-Dec-12 12:10 208 5 gusting 10 5.0
2019-Dec-12 12:00 214 11 gusting 14 5.0
2019-Dec-12 11:50 194 11 gusting 11 5.0
2019-Dec-12 11:40 195 5.0
2019-Dec-12 11:30 195 1 gusting 7 5.0
2019-Dec-12 11:10 184 5.0
2019-Dec-12 11:00 185 0 gusting 7 5.0
2019-Dec-12 10:50 184 3 gusting 6 5.0
2019-Dec-12 10:40 184 0 gusting 7 5.0
2019-Dec-12 10:30 183 5.0
2019-Dec-12 10:10 181 0 gusting 7 5.0
2019-Dec-12 10:00 182 4 gusting 7 5.0
2019-Dec-12 09:50 181 6 gusting 7 4.4
2019-Dec-12 09:40 181 4 gusting 7 4.4
2019-Dec-12 09:30 180 4.4
2019-Dec-12 09:20 180 0 gusting 7 4.4
2019-Dec-12 09:10 178 4.4
2019-Dec-12 08:50 179 4.4
2019-Dec-12 08:30 178 2 gusting 6 4.4
2019-Dec-12 08:10 180 0 gusting 6 4.4
2019-Dec-12 07:50 180 2 gusting 6 3.9
2019-Dec-12 07:30 179 3 gusting 6 4.4
2019-Dec-12 07:10 177 0 gusting 7 4.4
2019-Dec-12 07:00 177 2 gusting 6 4.4
2019-Dec-12 06:50 177 3.9
2019-Dec-12 06:40 176 7 gusting 7 3.9
2019-Dec-12 06:30 176 3.9
2019-Dec-12 06:20 176 3.9
2019-Dec-12 06:00 176 3.9
2019-Dec-12 05:40 176 3.9
2019-Dec-12 05:30 176 4.4
2019-Dec-12 05:20 176 4.4
2019-Dec-12 05:10 176 4.4
2019-Dec-12 04:50 176 2 gusting 6 4.4
2019-Dec-12 04:40 176 4.4
2019-Dec-12 03:40 176 4.4
2019-Dec-12 03:30 176 4.4
2019-Dec-12 03:20 176 4.4
2019-Dec-12 02:50 176 4.4
2019-Dec-12 02:40 176 4.4
2019-Dec-12 02:30 176 4.4
2019-Dec-12 02:20 176 4.4
2019-Dec-12 02:00 176 4.4
2019-Dec-12 01:50 176 4.4
2019-Dec-12 01:40 176 4.4
2019-Dec-12 01:30 176 5.0
2019-Dec-12 01:10 176 5.0
2019-Dec-12 01:00 176 5.0
2019-Dec-12 00:50 176 5.0
2019-Dec-12 00:40 176 5.0
2019-Dec-12 00:30 176 5.0
2019-Dec-12 00:20 176 5.0
2019-Dec-12 00:10 176 5.0
2019-Dec-12 00:00 176 5.0
2019-Dec-11 23:40 176 5.0
2019-Dec-11 23:30 177 0 gusting 6 5.0
2019-Dec-11 22:50 178 5.0
2019-Dec-11 22:40 178 5.0
2019-Dec-11 22:30 177 5.0
2019-Dec-11 22:10 176 0 gusting 7 5.0
2019-Dec-11 21:50 180 5.0
2019-Dec-11 21:40 179 5.0
2019-Dec-11 21:10 180 5.0
2019-Dec-11 20:40 180 4 gusting 7 5.0
2019-Dec-11 20:30 179 5.0
2019-Dec-11 20:20 179 4 gusting 11 5.0
2019-Dec-11 20:10 177 1 gusting 6 5.0
2019-Dec-11 20:00 177 4 gusting 7 5.0
2019-Dec-11 19:40 176 5.0
2019-Dec-11 19:30 176 5.0
2019-Dec-11 19:20 176 5.0
2019-Dec-11 19:10 176 5.0
2019-Dec-11 19:00 176 5.0
2019-Dec-11 18:50 176 5.0
2019-Dec-11 18:40 176 5 gusting 10 5.0
2019-Dec-11 18:30 175 11 gusting 14 5.0
2019-Dec-11 18:20 183 1 gusting 7 5.0
2019-Dec-11 18:00 181 1 gusting 7 5.0
2019-Dec-11 17:50 181 5 gusting 10 5.0
2019-Dec-11 17:40 180 0 gusting 10 5.0
2019-Dec-11 17:30 178 3 gusting 7 5.0
2019-Dec-11 17:20 175 5 gusting 10 5.0
2019-Dec-11 17:10 175 5.0
2019-Dec-11 16:50 184 4 gusting 7 5.0
2019-Dec-11 16:40 184 5.0
2019-Dec-11 16:30 184 12 gusting 11 5.0
2019-Dec-11 16:00 189 4 gusting 10 5.0
2019-Dec-11 15:50 185 5.0
2019-Dec-11 15:30 183 2 gusting 7 5.0
2019-Dec-11 15:20 180 5.0
2019-Dec-11 15:10 180 1 gusting 7 5.0
2019-Dec-11 15:00 180 5.0
2019-Dec-11 14:50 180 8 gusting 11 5.0
2019-Dec-11 14:40 199 5 gusting 13 5.0
2019-Dec-11 14:30 195 9 gusting 13 5.0
2019-Dec-11 14:20 185 5.0
2019-Dec-11 14:10 186 9 gusting 10 5.0
2019-Dec-11 13:50 187 10 gusting 13 5.0
2019-Dec-11 13:40 189 9 gusting 13 5.0
2019-Dec-11 13:30 189 7 gusting 13 5.0
2019-Dec-11 13:10 201 10 gusting 17 5.0
2019-Dec-11 12:50 167 11 gusting 13 5.0
2019-Dec-11 12:30 176 9 gusting 13 5.0
2019-Dec-11 12:20 187 9 gusting 14 5.0
2019-Dec-11 12:10 196 13 gusting 14 5.0
2019-Dec-11 12:00 197 11 gusting 17 5.0
2019-Dec-11 11:50 192 14 gusting 17 5.0
2019-Dec-11 11:30 210 9 gusting 13 5.0
2019-Dec-11 11:20 205 13 gusting 13 5.0
2019-Dec-11 10:50 199 6 gusting 14 5.0
2019-Dec-11 10:40 197 8 gusting 14 5.0
2019-Dec-11 10:10 215 12 gusting 13 5.0
2019-Dec-11 10:00 219 12 gusting 13 5.0
2019-Dec-11 09:50 216 10 gusting 14 5.0
2019-Dec-11 09:40 214 11 gusting 17 4.4
2019-Dec-11 09:30 204 14 gusting 17 4.4
2019-Dec-11 09:20 204 16 gusting 14 4.4
2019-Dec-11 09:10 216 13 gusting 17 4.4
2019-Dec-11 09:00 212 10 gusting 14 4.4
2019-Dec-11 08:30 174 12 gusting 18 4.4
2019-Dec-11 08:10 187 15 gusting 19 3.9
2019-Dec-11 07:50 209 13 gusting 19 3.9
2019-Dec-11 07:40 198 19 gusting 20 3.9
2019-Dec-11 07:10 202 19 gusting 25 3.9
2019-Dec-11 07:00 184 17 gusting 18 3.9
2019-Dec-11 06:30 187 18 gusting 21 3.9
2019-Dec-11 06:20 188 17 gusting 21 3.9
2019-Dec-11 06:10 201 20 gusting 21 3.9
2019-Dec-11 06:00 196 14 gusting 21 3.9
2019-Dec-11 05:40 197 15 gusting 26 3.9
2019-Dec-11 05:20 200 19 gusting 32 3.9
2019-Dec-11 05:10 194 20 gusting 31 3.9
2019-Dec-11 04:50 173 15 gusting 39 3.9
2019-Dec-11 04:40 175 27 gusting 39 3.9
2019-Dec-11 04:30 182 18 gusting 21 3.9
2019-Dec-11 04:20 169 22 gusting 26 3.9
2019-Dec-11 04:00 176 21 gusting 28 3.9
2019-Dec-11 03:50 188 21 gusting 26 3.9
2019-Dec-11 03:40 193 17 gusting 27 3.9
2019-Dec-11 03:30 176 18 gusting 28 3.9
2019-Dec-11 03:10 175 24 gusting 34 3.9
2019-Dec-11 03:00 163 13 gusting 28 3.9
2019-Dec-11 02:50 202 26 gusting 45 4.4
2019-Dec-11 02:40 188 28 gusting 32 4.4
2019-Dec-11 02:30 181 27 gusting 32 4.4
2019-Dec-11 02:20 176 24 gusting 33 4.4
2019-Dec-11 02:10 187 21 gusting 28 4.4
2019-Dec-11 02:00 167 21 gusting 32 4.4
2019-Dec-11 01:50 149 17 gusting 32 4.4
2019-Dec-11 01:40 186 21 gusting 32 4.4
2019-Dec-11 01:20 194 21 gusting 33 4.4
2019-Dec-11 01:00 187 19 gusting 32 4.4
2019-Dec-11 00:40 214 21 gusting 32 4.4
2019-Dec-11 00:30 156 19 gusting 32 4.4
2019-Dec-11 00:20 168 21 gusting 32 4.4
2019-Dec-10 23:30 189 21 gusting 34 4.4
2019-Dec-10 23:20 182 22 gusting 38 4.4
2019-Dec-10 23:00 139 25 gusting 34 4.4
2019-Dec-10 22:50 153 18 gusting 31 4.4
2019-Dec-10 22:30 163 18 gusting 28 4.4
2019-Dec-10 22:20 187 19 gusting 31 4.4
2019-Dec-10 22:10 176 19 gusting 28 4.4
2019-Dec-10 22:00 168 20 gusting 33 4.4
2019-Dec-10 21:50 184 24 gusting 34 4.4
2019-Dec-10 21:30 157 15 gusting 28 4.4
2019-Dec-10 21:20 174 23 gusting 33 4.4
2019-Dec-10 21:10 165 19 gusting 34 4.4
2019-Dec-10 21:00 165 19 gusting 26 4.4
2019-Dec-10 20:50 142 19 gusting 28 3.9
2019-Dec-10 20:40 187 19 gusting 34 3.9
2019-Dec-10 20:30 186 20 gusting 28 3.9
2019-Dec-10 20:20 155 21 gusting 28 3.9
2019-Dec-10 20:10 167 19 gusting 28 3.9
2019-Dec-10 20:00 162 13 gusting 19 3.9
2019-Dec-10 19:50 193 17 gusting 26 3.9
2019-Dec-10 19:40 172 18 gusting 21 3.9
2019-Dec-10 19:30 175 18 gusting 31 3.9
2019-Dec-10 19:20 157 15 gusting 20 3.9
2019-Dec-10 19:10 189 11 gusting 18 3.9
2019-Dec-10 19:00 178 15 gusting 27 3.3
2019-Dec-10 18:50 186 13 gusting 25 3.3
2019-Dec-10 18:40 182 17 gusting 20 3.3
2019-Dec-10 18:20 182 9 gusting 19 3.3
2019-Dec-10 18:10 168 5 gusting 14 3.3